Location: ??????????
(44.2167°N, 135.5333°E)
Time: 14:47:43
(UTC+00:00)

ATLAS CENTAUR R/B - Pass Details

Date: 15 June 2025
Orbit: 373 x 497 km, 64.6° (Epoch: 15 July)

Event Time Altitude Azimuth Distance (km) Brightness Sun altitude
Rises 12:54:44 0° 316° (NW) 2,608 6.3 -16.8°
Reaches altitude 10° 12:57:04 10° 307° (NW) 1,711 4.9 -17.0°
Maximum altitude 13:00:30 32° 243° (WSW) 875 2.3 -17.3°
Enters shadow 13:01:42 25° 208° (SSW) 1,009 2.3 -17.4°
